Weather in Weymouth

United Kingdom     50°35′24″N   2°28′50″W
temp.,
°C
wind,
m/s
gust,
m/s
humid.,
%
clouds,
%
prec.,
mm/h
press.,
hPa
HPBL,
m
8 may, sat
sat801:00+9se101286100 0.8 1011565
04:00+10sse121797100 4.6 1006433
07:00+12ssw152192100 12.7 1003635
10:00+12sw132089100 0.2 1004534
13:00+12ssw132089100 0.2 1003489
16:00+12sw9178886 0.0 1003350
19:00+12ssw814890 0.0 1002276
22:00+12s511910 0.0 1001186
9 may, sun
sun901:00+12ssw8148746 0.0 999285
04:00+12s10168537 0.0 997328
07:00+12s9148660 0.0 996280
10:00+11ssw91392100 0.0 996367
13:00+11ssw71188100 0.1 997357
16:00+11ssw61086100 0.2 997260
19:00+11ssw6128581 0.2 996290
22:00+12ssw81483100 0.0 996374
10 may, mon
mon1001:00+11s91384100 0.0 996479
04:00+11ssw11148811 0.1 996641
07:00+11ssw1317888 0.2 997828
10:00+11sw14178498 0.1 999895
13:00+11sw1216815 0.1 1001883
16:00+11sw913805 0.0 1003722
19:00+11sw710832 0.0 1004471
22:00+11s57845 0.1 1005315
11 may, tue
tue1101:00+11s688118 0.3 1005303
04:00+10s58835 0.2 1005439
07:00+10s578599 0.4 1005491
10:00+10s5787100 0.3 1006463
13:00+10sse67851 0.5 1006521
16:00+11ese457947 0.1 1005189
19:00+11ese45805 0.1 1005136
22:00+11wsw78875 0.1 1007347
12 may, wed
wed1201:00+11sw7109235 0.1 1007408
04:00+10wsw9129128 0.7 1008669
07:00+11wsw9128640 0.8 1008767
10:00+11sw912855 0.2 1009683
13:00+11sw912844 0.3 1009670
16:00+11sw811843 0.0 1009531
19:00+11sw710865 0.0 1009385
22:00+11sw689045 0.0 1009312